TimeMST,TemperatureF,Dew PointF,Humidity,Sea Level PressureIn,VisibilityMPH,Wind Direction,Wind SpeedMPH,Gust SpeedMPH,PrecipitationIn,Events,Conditions,WindDirDegrees,DateUTC
12:11 AM,-13.9,-19.3,77,30.02,10.0,WSW,3.5,-,N/A,,Clear,240,2014-02-06 07:11:00
12:31 AM,-14.8,-20.2,77,30.01,10.0,WSW,3.5,-,N/A,,Scattered Clouds,240,2014-02-06 07:31:00
12:51 AM,-14.8,-20.2,77,30.00,10.0,WSW,3.5,-,N/A,,Scattered Clouds,240,2014-02-06 07:51:00
1:11 AM,-14.8,-20.2,77,29.99,10.0,North,-9999.0,-,N/A,,Mostly Cloudy,0,2014-02-06 08:11:00
1:31 AM,-15.2,-20.7,76,29.99,10.0,WSW,3.5,-,N/A,,Scattered Clouds,250,2014-02-06 08:31:00
1:51 AM,-15.5,-20.9,77,29.99,10.0,North,-9999.0,-,N/A,,Clear,0,2014-02-06 08:51:00
2:11 AM,-14.8,-19.8,78,29.98,10.0,North,-9999.0,-,N/A,,Scattered Clouds,0,2014-02-06 09:11:00
2:31 AM,-15.2,-20.7,76,29.97,5.0,Calm,Calm,-,N/A,,Haze,0,2014-02-06 09:31:00
2:51 AM,-16.1,-21.8,75,29.97,10.0,North,-9999.0,-,N/A,,Scattered Clouds,0,2014-02-06 09:51:00
3:11 AM,-15.9,-21.3,77,29.95,10.0,Calm,Calm,-,N/A,,Mostly Cloudy,0,2014-02-06 10:11:00
3:31 AM,-14.8,-20.2,77,29.95,10.0,North,-9999.0,-,N/A,,Overcast,0,2014-02-06 10:31:00
3:51 AM,-15.3,-20.9,76,29.95,10.0,North,-9999.0,-,N/A,,Overcast,0,2014-02-06 10:51:00
4:11 AM,-15.7,-21.1,77,29.95,10.0,Calm,Calm,-,N/A,,Mostly Cloudy,0,2014-02-06 11:11:00
4:31 AM,-16.1,-22.0,74,29.95,10.0,Calm,Calm,-,N/A,,Scattered Clouds,0,2014-02-06 11:31:00
4:51 AM,-16.2,-22.0,75,29.95,10.0,North,-9999.0,-,N/A,,Clear,0,2014-02-06 11:51:00
5:11 AM,-16.6,-22.2,76,29.95,10.0,North,-9999.0,-,N/A,,Clear,0,2014-02-06 12:11:00
5:31 AM,-15.9,-21.1,77,29.95,10.0,North,-9999.0,-,N/A,,Clear,0,2014-02-06 12:31:00
5:51 AM,-16.1,-21.5,77,29.94,10.0,WSW,8.1,-,N/A,,Clear,250,2014-02-06 12:51:00
6:11 AM,-15.7,-21.3,76,29.94,10.0,North,-9999.0,-,N/A,,Clear,0,2014-02-06 13:11:00
6:31 AM,-15.5,-21.1,76,29.94,10.0,North,-9999.0,-,N/A,,Clear,0,2014-02-06 13:31:00
6:51 AM,-15.7,-21.3,76,29.94,10.0,North,-9999.0,-,N/A,,Clear,0,2014-02-06 13:51:00
7:11 AM,-15.9,-21.6,75,29.94,10.0,North,-9999.0,-,N/A,,Clear,0,2014-02-06 14:11:00
7:31 AM,-13.4,-18.6,77,29.94,10.0,North,-9999.0,-,N/A,,Clear,0,2014-02-06 14:31:00
7:51 AM,-11.4,-16.2,79,29.94,10.0,North,-9999.0,-,N/A,,Clear,0,2014-02-06 14:51:00
8:11 AM,-9.4,-14.3,79,29.95,10.0,North,-9999.0,-,N/A,,Clear,0,2014-02-06 15:11:00
8:31 AM,-7.8,-11.9,82,29.94,10.0,North,-9999.0,-,N/A,,Clear,0,2014-02-06 15:31:00
8:51 AM,-5.8,-9.8,83,29.94,10.0,North,-9999.0,-,N/A,,Clear,0,2014-02-06 15:51:00
9:11 AM,-4.5,-8.5,83,29.94,10.0,North,-9999.0,-,N/A,,Clear,0,2014-02-06 16:11:00
9:31 AM,-3.6,-7.6,83,29.94,10.0,North,-9999.0,-,N/A,,Clear,0,2014-02-06 16:31:00
9:51 AM,-2.4,-6.3,83,29.94,7.0,North,-9999.0,-,N/A,,Clear,0,2014-02-06 16:51:00
10:11 AM,-2.2,-6.9,80,29.93,10.0,North,-9999.0,-,N/A,,Clear,0,2014-02-06 17:11:00
10:31 AM,-2.0,-7.4,78,29.92,10.0,North,-9999.0,-,N/A,,Clear,0,2014-02-06 17:31:00
10:51 AM,-0.4,-6.0,77,29.92,7.0,North,-9999.0,-,N/A,,Clear,0,2014-02-06 17:51:00
11:11 AM,0.7,-5.8,74,29.91,7.0,North,-9999.0,-,N/A,,Clear,0,2014-02-06 18:11:00
11:31 AM,0.1,-6.9,72,29.90,10.0,North,-9999.0,-,N/A,,Clear,0,2014-02-06 18:31:00
11:51 AM,1.8,-6.3,69,29.88,10.0,North,-9999.0,-,N/A,,Clear,0,2014-02-06 18:51:00
12:11 PM,2.8,-6.2,66,29.87,10.0,North,-9999.0,-,N/A,,Clear,0,2014-02-06 19:11:00
12:31 PM,4.1,-5.8,64,29.85,10.0,SW,11.5,-,N/A,,Clear,220,2014-02-06 19:31:00
12:51 PM,4.8,-5.3,63,29.84,10.0,North,-9999.0,-,N/A,,Clear,0,2014-02-06 19:51:00
1:11 PM,5.4,-4.9,63,29.83,10.0,North,-9999.0,-,N/A,,Clear,0,2014-02-06 20:11:00
1:31 PM,6.3,-4.4,62,29.81,10.0,North,-9999.0,-,N/A,,Clear,0,2014-02-06 20:31:00
1:51 PM,7.3,-3.1,62,29.81,10.0,North,-9999.0,-,N/A,,Clear,0,2014-02-06 20:51:00
2:11 PM,8.2,-2.4,62,29.81,10.0,North,-9999.0,-,N/A,,Clear,0,2014-02-06 21:11:00
2:31 PM,8.1,-2.4,62,29.80,10.0,North,-9999.0,-,N/A,,Clear,0,2014-02-06 21:31:00
2:51 PM,8.4,-2.2,62,29.80,10.0,North,-9999.0,-,N/A,,Clear,0,2014-02-06 21:51:00
3:11 PM,8.6,-1.7,63,29.80,10.0,North,-9999.0,-,N/A,,Clear,0,2014-02-06 22:11:00
3:31 PM,7.7,-2.4,63,29.80,10.0,North,-9999.0,-,N/A,,Clear,0,2014-02-06 22:31:00
3:51 PM,6.8,-2.6,66,29.81,10.0,North,-9999.0,-,N/A,,Clear,0,2014-02-06 22:51:00
4:11 PM,6.4,-2.4,67,29.80,10.0,North,-9999.0,-,N/A,,Clear,0,2014-02-06 23:11:00
4:31 PM,5.9,-3.1,67,29.81,10.0,North,-9999.0,-,N/A,,Clear,0,2014-02-06 23:31:00
4:51 PM,4.6,-3.5,69,29.81,10.0,North,-9999.0,-,N/A,,Clear,0,2014-02-06 23:51:00
5:11 PM,2.5,-4.4,73,29.80,10.0,North,-9999.0,-,N/A,,Clear,0,2014-02-07 00:11:00
5:31 PM,-0.0,-5.4,78,29.80,10.0,North,-9999.0,-,N/A,,Clear,0,2014-02-07 00:31:00
5:51 PM,-2.2,-6.7,81,29.81,10.0,North,-9999.0,-,N/A,,Clear,0,2014-02-07 00:51:00
6:11 PM,-3.8,-7.6,84,29.81,10.0,North,-9999.0,-,N/A,,Clear,0,2014-02-07 01:11:00
6:31 PM,-5.3,-8.9,84,29.82,10.0,North,-9999.0,-,N/A,,Clear,0,2014-02-07 01:31:00
6:51 PM,-6.2,-9.9,84,29.83,10.0,North,-9999.0,-,N/A,,Clear,0,2014-02-07 01:51:00
7:11 PM,-6.5,-9.9,85,29.83,10.0,North,-9999.0,-,N/A,,Clear,0,2014-02-07 02:11:00
7:31 PM,-6.3,-9.8,85,29.81,10.0,West,8.1,-,N/A,,Clear,280,2014-02-07 02:31:00
7:51 PM,-5.4,-9.4,83,29.80,10.0,West,6.9,-,N/A,,Clear,260,2014-02-07 02:51:00
8:11 PM,-5.1,-9.4,82,29.80,10.0,North,-9999.0,-,N/A,,Clear,0,2014-02-07 03:11:00
8:31 PM,-5.1,-9.4,82,29.81,10.0,North,-9999.0,-,N/A,,Clear,0,2014-02-07 03:31:00
8:51 PM,-4.5,-8.9,82,29.80,10.0,North,-9999.0,-,N/A,,Clear,0,2014-02-07 03:51:00
9:11 PM,-5.4,-10.5,79,29.81,10.0,North,-9999.0,-,N/A,,Clear,0,2014-02-07 04:11:00
9:31 PM,-7.1,-11.6,81,29.81,10.0,North,4.6,-,N/A,,Clear,350,2014-02-07 04:31:00
9:51 PM,-4.4,-9.0,80,29.81,10.0,North,-9999.0,-,N/A,,Clear,0,2014-02-07 04:51:00
10:11 PM,-3.8,-8.3,81,29.81,10.0,North,-9999.0,-,N/A,,Clear,0,2014-02-07 05:11:00
10:31 PM,-0.8,-5.4,81,29.80,10.0,North,-9999.0,-,N/A,,Clear,0,2014-02-07 05:31:00
10:51 PM,0.1,-4.9,79,29.80,10.0,North,-9999.0,-,N/A,,Clear,0,2014-02-07 05:51:00
11:11 PM,1.4,-3.6,79,29.80,10.0,North,-9999.0,-,N/A,,Clear,0,2014-02-07 06:11:00
11:31 PM,8.1,2.5,78,29.79,10.0,West,10.4,-,N/A,,Clear,270,2014-02-07 06:31:00
11:51 PM,13.1,5.0,70,29.78,10.0,North,-9999.0,-,N/A,,Clear,0,2014-02-07 06:51:00